Probability
1 4 8 12 14 12 9 7 8 9 11 13 12 11 8 5 3 3 3 3 3 3 2 1 0 0 1 0 0 0 0 1 0 0 0 0 0 1 2 3 2 1 0
2 5 10 14 15 14 12 9 7 8 10 12 12 10 7 5 3 3 3 3 3 3 2 1 0 0 1 1 1 1 1 1 1 0 0 0 0 1 2 2 2 1 0
2 6 12 16 17 17 16 13 9 7 9 10 11 9 7 5 4 3 3 3 3 3 3 1 1 0 0 1 1 2 1 1 1 0 0 0 0 0 1 1 1 1 1
4 7 12 17 19 19 18 16 12 10 9 10 9 9 8 6 5 4 3 3 3 3 3 3 2 1 0 0 1 1 1 0 0 0 0 0 0 0 0 0 0 1 1
7 9 12 16 18 19 18 16 14 13 12 10 9 9 9 8 6 4 3 3 3 3 3 3 2 1 0 0 0 0 0 0 0 0 0 0 0 0 0 0 0 1 2
11 11 12 14 15 17 17 16 14 13 12 11 11 11 11 10 8 6 4 3 3 3 3 3 2 1 0 0 0 0 0 0 0 0 0 0 0 0 0 0 1 2 3
12 12 13 12 12 14 15 15 14 12 11 11 12 12 11 11 10 8 6 4 3 3 3 4 3 1 0 0 0 0 0 0 0 0 0 0 0 0 0 1 2 3 4
13 13 13 12 11 11 12 12 13 11 10 9 10 11 10 10 10 10 8 6 5 4 4 5 4 3 1 0 0 0 0 0 0 0 0 0 0 0 0 1 2 3 4
15 15 14 11 9 9 10 10 10 9 7 8 8 7 7 8 9 10 9 8 6 6 6 7 7 5 2 1 0 0 0 0 0 0 0 0 0 0 0 0 1 2 3
15 15 13 9 7 8 9 9 8 7 5 5 6 5 4 5 8 9 9 7 6 6 7 8 8 6 3 1 0 0 0 0 0 0 0 0 0 0 0 0 0 1 2
14 14 12 8 7 8 9 8 6 5 4 4 4 4 3 4 6 8 7 6 6 6 7 8 7 4 1 0 0 0 0 0 0 0 0 0 0 1 1 1 1 1 1
12 13 12 9 8 9 9 6 5 4 3 3 3 3 4 5 6 6 5 4 4 5 5 6 4 2 0 0 0 0 0 0 0 0 0 0 1 2 3 3 3 2 1
11 11 11 9 8 8 7 6 4 3 3 3 3 3 4 5 5 3 2 3 3 3 3 2 2 1 0 0 0 0 0 0 0 0 0 0 2 3 3 4 4 3 3
10 10 10 9 7 6 6 6 4 3 3 3 3 3 3 4 3 2 3 3 2 1 1 0 1 1 0 0 0 0 0 0 0 0 0 0 1 2 3 3 3 3 3
10 10 9 8 6 5 6 6 4 3 3 3 3 3 3 3 2 2 3 2 1 0 0 0 0 1 0 0 0 0 0 0 0 0 0 0 0 1 2 2 2 1 2
9 9 8 7 5 4 5 5 5 4 4 4 4 3 3 3 2 1 1 1 0 0 0 0 0 0 0 0 0 0 0 0 0 0 0 0 0 0 1 1 1 0 1
7 7 7 6 4 3 3 3 4 4 5 6 5 4 3 3 3 1 1 0 0 0 0 0 0 0 0 0 0 0 0 0 0 0 0 0 0 0 0 0 0 0 0
6 6 6 6 4 3 2 2 3 5 6 6 6 4 3 3 3 3 2 1 0 0 0 0 0 0 0 0 0 0 0 0 0 0 0 0 0 0 0 0 0 0 0
6 7 7 6 4 3 2 1 2 4 5 6 5 4 3 3 3 3 3 2 1 1 0 0 0 0 0 0 0 0 0 0 0 0 0 0 0 0 0 0 0 0 0
7 7 7 6 4 3 3 2 1 2 3 5 4 3 3 3 3 3 3 3 3 2 1 0 0 0 0 0 0 0 0 0 0 0 0 0 0 0 0 0 0 0 0
7 7 7 5 4 3 3 3 2 1 2 3 3 3 3 3 3 3 3 3 3 3 2 1 0 0 0 0 0 0 0 0 0 0 0 0 0 0 0 0 0 0 0
6 7 6 4 3 3 3 3 3 2 2 2 2 3 3 3 2 2 3 3 3 3 2 1 0 0 0 0 0 0 0 0 0 0 0 0 0 0 0 0 0 0 0
4 5 6 4 3 3 3 3 2 2 2 1 1 3 3 2 1 1 1 3 3 2 1 0 0 0 0 0 0 0 0 0 0 0 0 0 0 0 0 0 0 0 0
2 4 5 5 4 3 3 2 1 2 2 1 2 3 3 2 1 0 1 2 2 1 0 0 0 0 0 0 0 0 0 0 0 0 0 0 0 0 0 0 0 0 0
2 3 4 5 4 4 3 1 0 1 1 0 1 2 2 1 0 0 0 1 1 1 0 0 0 0 0 0 0 0 0 0 0 0 0 0 0 0 0 0 0 0 0
3 3 4 5 5 4 3 1 0 0 0 0 0 1 1 0 0 0 0 0 0 0 0 0 0 0 0 0 0 0 0 0 0 0 0 0 0 0 0 0 0 0 0
Wind_Speed
2 2 5 5 6 8 9 10 10 10 11 11 11 11 11 12 12 12 12 12 12 12 12 13 13 14 14 14 15 15 15 15 15 15 15 15 15 16 16 15 13 11 16
4 4 6 6 7 9 9 9 9 10 10 10 11 11 11 11 11 12 12 12 11 12 12 13 13 13 13 14 14 14 15 15 15 14 13 12 13 15 16 15 14 11 17
4 4 5 7 8 9 9 9 9 9 9 10 10 10 11 11 11 11 11 11 11 11 12 13 13 13 13 13 14 14 14 14 14 13 11 6 9 14 16 15 15 16 16
5 3 4 7 9 9 9 9 9 9 9 9 9 9 10 10 10 11 11 11 11 11 12 12 12 13 13 13 13 13 14 14 13 11 6 5 6 13 15 15 15 16 16
5 3 4 8 8 9 9 9 9 8 9 9 9 9 9 9 10 10 11 11 11 11 11 12 12 12 12 12 12 13 13 13 13 9 6 5 5 12 15 15 15 15 16
5 3 4 8 8 8 8 8 9 9 8 8 9 9 9 9 10 11 11 10 10 11 11 11 11 11 11 12 12 13 13 13 10 6 6 5 5 12 14 14 15 15 15
5 4 4 8 8 8 8 8 8 8 8 8 9 9 9 9 9 10 10 10 10 10 11 11 11 11 11 11 12 12 12 11 7 6 5 5 7 12 14 14 14 14 14
5 4 4 7 8 8 8 8 8 8 8 8 8 8 9 9 9 9 9 9 10 10 10 10 10 11 11 12 12 12 10 9 7 6 5 5 9 12 13 13 13 13 13
5 5 4 4 5 7 8 8 8 8 8 9 8 8 8 8 8 8 8 8 9 10 9 9 10 11 11 11 12 12 11 9 5 4 5 4 10 12 12 12 12 13 13
5 4 4 4 4 4 4 7 8 8 8 9 8 8 7 7 7 8 7 8 8 9 9 9 10 11 11 11 11 11 10 7 4 4 3 5 10 12 12 12 12 12 12
4 3 3 4 4 3 3 5 6 6 7 7 6 7 6 4 4 4 6 7 8 8 9 9 10 10 10 10 11 10 7 3 3 3 3 8 10 11 11 11 12 12 12
3 3 3 4 4 3 3 3 3 3 4 4 4 4 3 3 3 4 6 8 8 8 8 8 9 8 6 4 6 7 3 3 3 2 3 8 10 10 10 11 11 11 11
3 3 3 3 4 4 3 2 2 2 3 3 4 4 3 3 3 3 2 4 4 5 4 5 5 3 3 3 3 3 3 3 2 2 3 8 9 9 10 10 10 11 10
3 3 3 3 3 3 3 2 3 2 2 2 3 4 3 2 2 2 2 2 2 2 2 3 2 3 4 4 4 4 4 3 2 2 3 7 8 9 9 9 9 10 10
3 3 3 3 3 3 3 2 3 2 2 2 3 3 3 3 2 2 2 2 2 2 2 2 2 3 3 4 3 4 4 3 3 2 2 6 7 8 8 8 8 8 9
4 4 4 3 3 3 3 3 2 2 2 2 2 3 3 3 2 2 2 2 2 2 2 2 2 3 2 3 3 4 4 3 3 3 2 3 6 6 7 8 8 8 8
3 4 4 4 3 3 3 3 2 2 2 2 2 3 3 3 3 2 2 2 2 2 2 2 3 2 3 3 3 3 3 3 3 3 2 2 2 4 5 7 7 7 7
3 3 4 3 3 3 3 3 2 2 2 2 2 2 3 3 3 2 2 2 2 2 2 2 2 3 3 2 2 2 2 2 2 2 2 2 2 2 3 5 5 5 6
4 4 4 4 3 3 3 2 2 2 2 2 2 2 2 3 2 2 2 2 2 2 2 3 2 2 3 3 2 2 2 2 2 2 2 2 2 2 2 3 4 4 4
3 4 3 3 3 3 3 2 2 2 2 2 2 2 3 3 3 2 2 2 2 3 2 3 3 2 2 3 3 3 2 2 2 2 1 1 2 2 2 2 2 2 3
2 3 3 3 3 3 3 3 3 2 2 2 2 3 3 3 3 2 2 2 2 3 3 3 3 3 2 3 3 3 2 2 2 2 1 1 1 1 2 2 1 2 1
2 2 3 3 3 3 3 3 2 2 2 2 2 2 2 3 3 3 3 3 2 3 3 3 4 3 1 1 2 3 1 2 2 2 1 1 0 1 1 2 2 2 2
1 2 3 3 3 3 3 2 2 2 1 1 2 2 2 3 3 3 3 3 3 3 4 4 4 4 3 1 1 2 3 3 1 2 2 1 0 1 1 1 2 2 2
2 2 3 3 2 2 3 4 5 4 3 3 3 2 2 2 3 3 3 3 3 3 4 4 3 3 4 2 0 1 1 3 2 0 2 2 1 1 1 1 1 2 2
2 2 3 2 2 2 3 4 4 3 2 2 2 2 2 2 2 3 3 3 3 3 3 4 3 3 3 3 2 1 1 1 1 2 1 1 1 1 0 1 1 1 1
1 0 1 2 2 2 3 3 4 4 3 3 3 3 2 1 2 2 3 3 3 3 3 3 4 4 3 3 2 2 2 2 2 2 2 1 1 1 1 1 1 1 1
Wind_Direction
205 203 154 135 123 117 113 108 103 99 96 96 98 98 99 98 98 94 91 89 87 85 85 85 84 83 84 85 82 80 79 80 81 79 78 80 84 85 84 80 75 74 82
172 177 150 135 125 118 116 111 105 100 98 99 101 102 102 99 98 97 95 92 89 88 88 86 84 83 84 85 84 83 82 81 81 76 72 73 80 85 85 83 81 80 81
136 146 148 135 124 120 114 114 109 104 101 99 99 102 103 100 98 97 97 95 92 90 90 88 87 85 84 85 85 85 84 81 78 73 67 64 77 84 85 85 85 85 84
125 122 135 130 124 120 115 111 112 109 106 102 100 100 104 104 102 100 99 97 95 93 91 89 87 87 87 87 88 87 84 80 76 72 61 59 73 86 86 86 87 87 86
112 104 123 122 122 120 117 113 110 110 108 104 102 102 102 106 107 103 100 97 95 94 92 91 89 88 89 90 90 88 85 80 73 67 59 58 71 88 88 87 86 87 87
109 99 117 115 114 116 119 117 112 107 106 105 104 104 101 103 107 104 101 99 98 96 94 93 91 91 91 91 91 91 87 81 72 63 62 63 72 89 90 89 87 87 87
111 98 111 111 112 110 111 114 111 108 104 103 105 103 101 100 105 106 103 103 102 100 98 96 94 92 92 93 94 95 89 82 75 65 64 68 81 91 91 89 89 88 88
115 106 106 112 108 106 104 101 103 105 104 98 103 101 98 98 98 103 105 105 107 105 102 99 98 94 93 94 96 94 88 83 80 73 69 76 87 91 92 91 91 92 92
106 102 96 99 102 102 97 92 89 90 98 96 90 89 87 90 93 99 101 103 107 107 104 102 99 97 94 94 96 93 86 79 74 75 79 78 89 91 94 95 95 96 95
97 99 97 95 89 87 91 91 87 85 89 94 88 79 74 81 86 89 92 99 101 103 102 100 99 99 95 91 92 91 85 76 70 74 74 87 91 91 94 94 94 95 95
99 100 106 104 97 92 90 93 91 87 84 85 82 78 71 62 75 82 81 91 94 97 96 96 98 96 91 88 87 84 78 69 72 73 82 94 96 95 93 96 96 96 96
140 131 118 118 112 103 98 92 87 76 77 74 75 74 70 59 61 75 79 81 84 85 89 89 89 86 80 79 78 74 70 72 72 71 91 99 102 101 98 98 99 98 97
161 139 127 128 122 116 112 105 94 83 79 75 76 73 73 65 60 60 71 72 71 74 72 76 73 67 74 81 82 79 76 75 68 67 91 103 107 108 105 101 100 103 102
145 150 138 134 127 127 126 117 105 100 97 92 85 82 83 78 70 72 70 70 64 59 70 71 80 78 77 80 88 89 81 80 71 67 79 99 106 112 112 108 102 104 104
153 158 150 139 136 136 128 121 112 109 115 113 103 95 94 94 101 99 86 78 71 64 73 79 85 90 85 80 83 91 88 85 79 69 67 83 99 109 113 116 115 109 110
174 172 160 143 143 140 133 130 131 129 126 119 110 110 109 103 109 118 106 95 85 76 76 92 96 97 88 89 88 86 88 84 74 66 57 64 76 94 108 112 113 114 111
182 172 162 152 147 146 144 140 135 133 130 130 132 124 115 112 112 115 117 108 101 96 90 88 83 88 85 80 83 82 81 80 78 64 51 48 51 65 94 107 109 113 115
167 167 163 152 152 154 150 147 142 139 139 142 142 130 119 115 112 116 120 123 112 106 101 98 92 95 85 80 79 74 76 76 78 74 65 56 48 41 66 87 98 106 112
173 167 167 164 165 168 158 143 143 146 148 147 139 130 129 125 118 128 124 124 120 111 105 106 97 109 110 99 93 77 70 72 64 68 71 67 61 51 45 56 63 79 97
165 156 161 168 167 166 155 134 126 128 137 139 145 140 136 134 127 128 130 119 125 119 108 109 114 97 118 120 99 73 53 49 55 58 69 70 70 65 56 51 41 46 68
139 150 163 165 171 160 158 159 156 167 159 150 154 148 143 143 140 136 135 134 135 135 135 129 119 115 103 112 101 76 30 27 41 31 38 67 68 70 89 76 53 54 56
164 173 178 182 176 174 174 176 168 164 164 159 151 149 149 150 149 152 152 163 155 144 134 132 120 125 134 124 123 121 74 3 351 358 8 79 109 78 96 93 93 82 82
183 198 196 197 188 184 172 151 134 122 115 136 161 164 171 166 161 163 171 170 167 164 160 159 151 143 157 195 103 138 150 193 280 328 337 355 153 131 110 121 116 105 99
224 220 199 191 183 183 172 165 168 172 180 193 186 181 186 169 156 158 167 175 175 174 170 172 164 157 151 163 244 7 127 144 153 224 323 355 17 134 145 143 131 131 117
214 220 207 188 181 182 178 175 177 183 184 176 169 169 179 174 165 170 167 170 175 180 183 176 173 168 165 168 170 153 108 71 128 151 207 296 348 317 235 172 155 151 136
231 223 215 185 192 192 182 178 178 182 180 176 183 186 189 188 184 183 176 175 180 183 188 190 184 181 183 178 179 165 154 158 172 149 172 202 242 284 291 231 193 186 174